Thunderstorms From: 20-05-2018 05:00 Until: 21-05-2018 05:00 warning for: Thunderstorms Level: Yellow info button

Although rather usual in this region, locally or potentially dangerous phenomena are expected. (such as local winds, summer thunderstorms, rising streams or high waves) Be aware and pay attention to the latest weather updates, especially if you carry out activities exposed to weather or close to a stream or shoreline. 


Meteo18 Weather Cam more information Meteo18 Weather Cam


warning for Thunderstorms more information blitzortung!


Rain radar more information rain snow radar


Visit our other weather sites:

Template documentation
and downloads

And another site



Weather Underground History page Text

Daily Summary for January 2, 2018 Units:  Metric    English   Both
« Previous Day
Next Day »
Daily Weekly Monthly Yearly Custom
  High: Low: Average:
Temperature: -17.8 °C -15.7 °C -13.9 °C
Dew Point: -17.8 °C -16.2 °C -14.6 °C
Humidity: Humidity % 84 % 92 %
Wind Speed: 0 km/h 0 km/h 15.1 km/h
Wind Gust: 0 km/h - -
Wind:- - SW
Pressure: 0 hPa 34303.6 hPa -
Precipitation: 50.8 mm    
Historical Graphs
 
 
Tabular Data for January 2, 2018
Time Temperature Dew Point Pressure Wind Wind Speed Wind Gust Humidity Rainfall Rate (Hourly)
-17.8 °C -17.8 °C 0 hPa Calm     Humidity % 0 mm
00:00 -14.1 °C -15.5 °C 34418.7 hPa West 15.6 km/h 25.9 km/h 84 % 0 mm
00:04 -14.1 °C -15.4 °C 34428.8 hPa West 31.4 km/h 41.4 km/h 85 % 0 mm
00:10 -14.1 °C -15.4 °C 34428.8 hPa West 23 km/h 38.8 km/h 85 % 0 mm
00:16 -14.2 °C -15.5 °C 34428.8 hPa West 23 km/h 31.1 km/h 85 % 0 mm
00:22 -14.2 °C -15.4 °C 34442.4 hPa WSW 38.8 km/h 38.8 km/h 86 % 0 mm
00:28 -14.3 °C -15.5 °C 34442.4 hPa WSW 23 km/h 38.8 km/h 86 % 0 mm
00:34 -14.3 °C -15.5 °C 34442.4 hPa WSW 20.9 km/h 33.6 km/h 86 % 0 mm
00:36 -14.3 °C -15.5 °C 34442.4 hPa WSW 12.7 km/h 44.1 km/h 86 % 0 mm
00:42 -14.3 °C -15.5 °C 34442.4 hPa West 28.5 km/h 33.6 km/h 86 % 0 mm
00:48 -14.3 °C -15.5 °C 34452.6 hPa West 20.9 km/h 31.1 km/h 86 % 0 mm
00:54 -14.4 °C -15.5 °C 34452.6 hPa West 23 km/h 31.1 km/h 87 % 0 mm
01:00 -14.4 °C -15.5 °C 34442.4 hPa West 20.9 km/h 44.1 km/h 87 % 0 mm
01:06 -14.4 °C -15.5 °C 34452.6 hPa West 28.5 km/h 33.6 km/h 87 % 0 mm
01:12 -14.4 °C -15.5 °C 34452.6 hPa West 23 km/h 31.1 km/h 87 % 0 mm
01:18 -14.4 °C -15.6 °C 34452.6 hPa West 23 km/h 28.5 km/h 87 % 0 mm
01:24 -14.4 °C -15.6 °C 34452.6 hPa WNW 15.6 km/h 25.9 km/h 87 % 0 mm
01:32 -14.4 °C -15.6 °C 34462.7 hPa West 28.5 km/h 44.1 km/h 87 % 0 mm
01:38 -14.5 °C -15.6 °C 34462.7 hPa WSW 26.2 km/h 33.6 km/h 87 % 0 mm
01:44 -14.6 °C -15.7 °C 34452.6 hPa West 17.9 km/h 33.6 km/h 87 % 0 mm
01:50 -14.6 °C -15.6 °C 34462.7 hPa West 15.6 km/h 28.5 km/h 88 % 0 mm
01:58 -14.6 °C -15.6 °C 34462.7 hPa West 28.5 km/h 33.6 km/h 88 % 0 mm
02:04 -14.7 °C -15.7 °C 34462.7 hPa WSW 23 km/h 28.5 km/h 88 % 0 mm
02:08 -14.7 °C -15.7 °C 34462.7 hPa WSW 15.6 km/h 33.6 km/h 88 % 0 mm
02:14 -14.7 °C -15.7 °C 34462.7 hPa WSW 20.9 km/h 28.5 km/h 88 % 0 mm
02:22 -14.8 °C -15.8 °C 34462.7 hPa SW 7.6 km/h 25.9 km/h 88 % 0 mm
02:28 -14.8 °C -15.8 °C 34476.3 hPa West 17.9 km/h 33.6 km/h 89 % 0 mm
02:34 -14.8 °C -15.8 °C 34476.3 hPa West 17.9 km/h 25.9 km/h 89 % 0 mm
02:40 -14.8 °C -15.8 °C 34476.3 hPa West 20.9 km/h 31.1 km/h 89 % 0 mm
02:46 -14.8 °C -15.8 °C 34486.4 hPa WSW 15.6 km/h 31.1 km/h 89 % 0 mm
02:52 -14.8 °C -15.8 °C 34486.4 hPa WSW 28.5 km/h 33.6 km/h 89 % 0 mm
02:58 -14.8 °C -15.8 °C 34486.4 hPa WSW 17.9 km/h 25.9 km/h 88 % 0 mm
03:04 -14.9 °C -15.8 °C 34486.4 hPa WSW 15.6 km/h 31.1 km/h 89 % 0 mm
03:18 -14.9 °C -15.8 °C 34496.6 hPa West 10.3 km/h 25.9 km/h 89 % 0 mm
03:32 -14.9 °C -15.8 °C 34496.6 hPa WSW 20.9 km/h 23.3 km/h 89 % 0 mm
03:36 -14.9 °C -15.8 °C 34496.6 hPa WSW 15.6 km/h 28.5 km/h 89 % 0 mm
03:44 -14.9 °C -15.9 °C 34496.6 hPa SW 15.6 km/h 25.9 km/h 89 % 0 mm
03:50 -14.9 °C -15.8 °C 34496.6 hPa WSW 10.3 km/h 23.3 km/h 90 % 0 mm
03:56 -15.1 °C -16 °C 34496.6 hPa SW 17.9 km/h 28.5 km/h 89 % 0 mm
04:06 -15.1 °C -15.9 °C 34496.6 hPa WSW 12.7 km/h 28.5 km/h 90 % 0 mm
04:14 -15.1 °C -15.9 °C 34496.6 hPa WSW 20.9 km/h 31.1 km/h 90 % 0 mm
04:20 -15.1 °C -15.9 °C 34496.6 hPa SW 20.9 km/h 28.5 km/h 90 % 0 mm
04:26 -15.1 °C -15.9 °C 34496.6 hPa WSW 10.3 km/h 23.3 km/h 90 % 0 mm
04:38 -15.1 °C -15.9 °C 34496.6 hPa West 26.2 km/h 28.5 km/h 90 % 0 mm
04:44 -15.2 °C -16 °C 34496.6 hPa WSW 23 km/h 23.3 km/h 90 % 0 mm
04:50 -15.2 °C -16 °C 34510.1 hPa WSW 17.9 km/h 31.1 km/h 90 % 0 mm
04:56 -15.2 °C -16 °C 34496.6 hPa WSW 17.9 km/h 23.3 km/h 90 % 0 mm
05:02 -15.2 °C -16 °C 34510.1 hPa SW 10.3 km/h 23.3 km/h 90 % 0 mm
05:09 -15.2 °C -15.9 °C 34510.1 hPa WSW 10.3 km/h 23.3 km/h 91 % 0 mm
05:15 -15.2 °C -15.9 °C 34510.1 hPa WSW 12.7 km/h 15.6 km/h 91 % 0 mm
05:27 -15.2 °C -15.9 °C 34510.1 hPa SW 12.7 km/h 18.2 km/h 91 % 0 mm
05:33 -15.2 °C -16 °C 34510.1 hPa SW 5.1 km/h 7.7 km/h 90 % 0 mm
05:39 -15.2 °C -16.1 °C 34510.1 hPa SW 7.6 km/h 10.3 km/h 90 % 0 mm
05:45 -15.3 °C -16 °C 34520.3 hPa SW 10.3 km/h 15.6 km/h 91 % 0 mm
05:49 -15.3 °C -16 °C 34520.3 hPa WSW 2.3 km/h 12.9 km/h 91 % 0 mm
05:55 -15.3 °C -16.1 °C 34520.3 hPa WSW 10.3 km/h 12.9 km/h 91 % 0 mm
06:01 -15.3 °C -16 °C 34520.3 hPa SW 5.1 km/h 18.2 km/h 91 % 0 mm
06:09 -15.2 °C -15.9 °C 34520.3 hPa WSW 12.7 km/h 15.6 km/h 91 % 0 mm
06:15 -15.2 °C -15.9 °C 34520.3 hPa SSW 2.3 km/h 10.3 km/h 91 % 0 mm
06:21 -15.2 °C -15.9 °C 34520.3 hPa WSW 5.1 km/h 18.2 km/h 91 % 0 mm
06:27 -15.2 °C -15.9 °C 34520.3 hPa Calm   12.9 km/h 91 % 0 mm
06:39 -15.1 °C -15.9 °C 34520.3 hPa SW 7.6 km/h 20.8 km/h 90 % 0 mm
06:45 -15.1 °C -15.9 °C 34520.3 hPa WSW 15.6 km/h 23.3 km/h 90 % 0 mm
06:51 -15.2 °C -16 °C 34520.3 hPa SW 15.6 km/h 18.2 km/h 90 % 0 mm
06:57 -15.2 °C -16.1 °C 34510.1 hPa WSW 10.3 km/h 10.3 km/h 90 % 0 mm
07:01 -15.2 °C -15.9 °C 34510.1 hPa SW 5.1 km/h 10.3 km/h 91 % 0 mm
07:03 -15.2 °C -15.9 °C 34510.1 hPa SSW 5.1 km/h 12.9 km/h 91 % 0 mm
07:09 -15.2 °C -15.9 °C 34496.6 hPa SW 10.3 km/h 18.2 km/h 91 % 0 mm
07:27 -15.3 °C -16.1 °C 34520.3 hPa WSW 5.1 km/h 20.8 km/h 91 % 0 mm
07:33 -15.3 °C -16 °C 34520.3 hPa WSW 12.7 km/h 18.2 km/h 91 % 0 mm
07:35 -15.3 °C -16 °C 34520.3 hPa SW 10.3 km/h 20.8 km/h 91 % 0 mm
07:41 -15.2 °C -15.9 °C 34520.3 hPa WSW 12.7 km/h 20.8 km/h 91 % 0 mm
07:45 -15.3 °C -16 °C 34520.3 hPa SSW 5.1 km/h 12.9 km/h 91 % 0 mm
07:47 -15.3 °C -16.1 °C 34520.3 hPa SSW 5.1 km/h 12.9 km/h 91 % 0 mm
07:53 -15.4 °C -16.1 °C 34520.3 hPa SSW 5.1 km/h 12.9 km/h 92 % 0 mm
07:59 -15.4 °C -16.1 °C 34510.1 hPa SSW 5.1 km/h 10.3 km/h 92 % 0 mm
08:07 -15.6 °C -16.2 °C 34496.6 hPa SSE 2.3 km/h 7.7 km/h 92 % 0 mm
08:25 -15.7 °C -16.2 °C 34544 hPa SW 2.3 km/h 7.7 km/h 93 % 0 mm
08:29 -15.7 °C -16.2 °C 34544 hPa WSW 5.1 km/h 10.3 km/h 93 % 0 mm
08:35 -15.5 °C -16 °C 34554.1 hPa SW 5.1 km/h 7.7 km/h 94 % 0 mm
08:41 -15.4 °C -15.9 °C 34554.1 hPa SW 2.3 km/h 15.6 km/h 93 % 0 mm
08:47 -15.3 °C -16 °C 34554.1 hPa Calm   5.1 km/h 92 % 0 mm
08:53 -15.3 °C -16 °C 34554.1 hPa SSE 2.3 km/h 7.7 km/h 92 % 0 mm
08:59 -15.4 °C -16.1 °C 34567.7 hPa SSE 2.3 km/h 5.1 km/h 92 % 0 mm
09:05 -15.4 °C -16.1 °C 34554.1 hPa South 5.1 km/h 7.7 km/h 92 % 0 mm
09:09 -15.4 °C -16.1 °C 34554.1 hPa Calm   5.1 km/h 92 % 0 mm
09:15 -15.4 °C -16.1 °C 34554.1 hPa Calm   5.1 km/h 92 % 0 mm
09:17 -15.4 °C -16.1 °C 34567.7 hPa SE 2.3 km/h 2.6 km/h 92 % 0 mm
09:23 -15.4 °C -16.1 °C 34567.7 hPa ESE 5.1 km/h 5.1 km/h 92 % 0 mm
09:29 -15.4 °C -15.9 °C 34567.7 hPa SE 2.3 km/h 10.3 km/h 93 % 0 mm
09:35 -15.3 °C -16 °C 34567.7 hPa SSE 2.3 km/h 10.3 km/h 92 % 0 mm
09:38 -15.3 °C -15.9 °C 34567.7 hPa SE 7.6 km/h 10.3 km/h 93 % 0 mm
09:41 -15.2 °C -15.9 °C 34567.7 hPa ESE 5.1 km/h 7.7 km/h 92 % 0 mm
09:54 -15.2 °C -15.8 °C 34554.1 hPa SE 2.3 km/h 15.6 km/h 92 % 0 mm
09:59 -15.2 °C -15.8 °C 34554.1 hPa SE 5.1 km/h 7.7 km/h 92 % 0 mm
10:05 -15.2 °C -15.8 °C 34554.1 hPa SSE 2.3 km/h 7.7 km/h 92 % 0 mm
10:11 -15.2 °C -15.8 °C 34544 hPa SSE 2.3 km/h 7.7 km/h 92 % 0 mm
10:18 -15.2 °C -15.8 °C 34544 hPa SSE 2.3 km/h 7.7 km/h 92 % 0 mm
10:24 -15.2 °C -15.8 °C 34544 hPa Calm   2.6 km/h 92 % 0 mm
10:30 -15.2 °C -15.8 °C 34533.8 hPa Calm   2.6 km/h 92 % 0 mm
10:36 -15.2 °C -15.8 °C 34533.8 hPa Calm   5.1 km/h 92 % 0 mm
10:42 -15.1 °C -15.7 °C 34533.8 hPa South 5.1 km/h 10.3 km/h 93 % 0 mm
10:48 -15.1 °C -15.6 °C 34533.8 hPa South 2.3 km/h 7.7 km/h 93 % 0 mm
10:54 -14.9 °C -15.5 °C 34544 hPa SSW 7.6 km/h 12.9 km/h 93 % 0 mm
11:00 -14.9 °C -15.4 °C 34544 hPa SW 15.6 km/h 15.6 km/h 93 % 0 mm
11:06 -14.8 °C -15.3 °C 34544 hPa SSW 5.1 km/h 15.6 km/h 94 % 0 mm
11:12 -14.7 °C -15.2 °C 34544 hPa SSW 7.6 km/h 15.6 km/h 94 % 0 mm
11:18 -14.6 °C -15.1 °C 34533.8 hPa SSW 5.1 km/h 10.3 km/h 94 % 0 mm
11:24 -14.6 °C -15.1 °C 34520.3 hPa SSW 7.6 km/h 12.9 km/h 94 % 0 mm
11:30 -14.6 °C -15.1 °C 34520.3 hPa SSW 12.7 km/h 12.9 km/h 94 % 0 mm
11:36 -14.5 °C -15 °C 34520.3 hPa SSW 5.1 km/h 10.3 km/h 94 % 0 mm
11:42 -14.4 °C -14.9 °C 34520.3 hPa SW 10.3 km/h 10.3 km/h 94 % 0 mm
11:48 -14.2 °C -14.6 °C 34520.3 hPa WSW 2.3 km/h 23.3 km/h 95 % 0 mm
11:54 -13.9 °C -14.4 °C 34520.3 hPa SW 12.7 km/h 25.9 km/h 94 % 0 mm
12:02 -13.8 °C -14.4 °C 34510.1 hPa SW 10.3 km/h 23.3 km/h 93 % 0 mm
12:08 -13.7 °C -14.3 °C 34496.6 hPa SW 20.9 km/h 31.1 km/h 93 % 0 mm
12:14 -13.7 °C -14.3 °C 34486.4 hPa SW 33.6 km/h 36.2 km/h 93 % 0 mm
12:30 -13.5 °C -14.2 °C 34476.3 hPa SSW 28.5 km/h 36.2 km/h 92 % 0 mm
12:36 -13.4 °C -14.1 °C 34476.3 hPa SW 31.4 km/h 38.8 km/h 93 % 0 mm
12:50 -13.4 °C -14.1 °C 34476.3 hPa SW 28.5 km/h 36.2 km/h 92 % 0 mm
12:56 -13.3 °C -14 °C 34462.7 hPa SW 7.6 km/h 25.9 km/h 92 % 0 mm
13:02 -13.3 °C -13.9 °C 34476.3 hPa SW 28.5 km/h 36.2 km/h 92 % 0 mm
13:08 -13.2 °C -13.9 °C 34462.7 hPa SW 20.9 km/h 36.2 km/h 92 % 0 mm
13:14 -13.2 °C -14 °C 34462.7 hPa SW 26.2 km/h 33.6 km/h 91 % 0 mm
13:20 -13.2 °C -13.9 °C 34452.6 hPa SSW 36.5 km/h 38.8 km/h 91 % 0 mm
13:36 -13.2 °C -14 °C 34462.7 hPa SSW 15.6 km/h 38.8 km/h 90 % 0 mm
13:42 -13.1 °C -14.1 °C 34462.7 hPa SW 15.6 km/h 25.9 km/h 89 % 0 mm
13:44 -13.1 °C -14.1 °C 34462.7 hPa SSW 15.6 km/h 28.5 km/h 89 % 0 mm
13:50 -13.1 °C -14.1 °C 34452.6 hPa SW 31.4 km/h 44.1 km/h 89 % 0 mm
13:56 -13.2 °C -14 °C 34452.6 hPa SSW 26.2 km/h 36.2 km/h 90 % 0 mm
14:02 -13.3 °C -14.1 °C 34452.6 hPa SW 31.4 km/h 38.8 km/h 91 % 0 mm
14:08 -13.4 °C -14.1 °C 34452.6 hPa SSW 17.9 km/h 25.9 km/h 93 % 0 mm
14:14 -13.4 °C -13.9 °C 34442.4 hPa South 20.9 km/h 28.5 km/h 94 % 0 mm
14:18 -13.5 °C -14 °C 34442.4 hPa SSW 17.9 km/h 28.5 km/h 94 % 0 mm
14:24 -13.5 °C -13.9 °C 34452.6 hPa SW 20.9 km/h 20.9 km/h 95 % 0 mm
14:36 -13.6 °C -13.9 °C 34428.8 hPa SSW 20.9 km/h 28.5 km/h 95 % 0 mm
14:42 -13.6 °C -13.9 °C 34428.8 hPa SW 12.7 km/h 25.9 km/h 96 % 0 mm
14:54 -13.6 °C -13.9 °C 34405.1 hPa South 7.6 km/h 18.2 km/h 96 % 0 mm
14:58 -13.6 °C -13.9 °C 34405.1 hPa South 12.7 km/h 15.6 km/h 96 % 0 mm
15:04 -13.6 °C -13.9 °C 34405.1 hPa SSE 5.1 km/h 18.2 km/h 96 % 7.62 mm
15:08 -13.6 °C -13.9 °C 34405.1 hPa SSE 12.7 km/h 25.9 km/h 96 % 7.62 mm
15:14 -13.6 °C -13.9 °C 34395 hPa SSE 17.9 km/h 25.9 km/h 96 % 7.62 mm
15:26 -13.6 °C -13.9 °C 34405.1 hPa SSW 12.7 km/h 25.9 km/h 96 % 7.62 mm
15:32 -13.6 °C -13.9 °C 34405.1 hPa SSW 5.1 km/h 18.2 km/h 96 % 7.62 mm
15:50 -13.6 °C -13.9 °C 34395 hPa SE 10.3 km/h 23.3 km/h 96 % 7.62 mm
15:56 -13.6 °C -13.9 °C 34395 hPa SSE 5.1 km/h 18.2 km/h 96 % 7.62 mm
16:02 -13.6 °C -13.9 °C 34395 hPa SSE 10.3 km/h 20.8 km/h 96 % 0 mm
16:14 -13.6 °C -13.9 °C 34395 hPa South 15.6 km/h 18.2 km/h 96 % 0 mm
16:20 -13.7 °C -14 °C 34395 hPa SSW 15.6 km/h 25.9 km/h 96 % 0 mm
16:26 -13.7 °C -14 °C 34395 hPa SSW 17.9 km/h 23.3 km/h 96 % 0 mm
16:32 -13.7 °C -14 °C 34395 hPa South 20.9 km/h 28.5 km/h 96 % 7.62 mm
16:44 -13.7 °C -14 °C 34384.8 hPa SE 12.7 km/h 20.8 km/h 96 % 7.62 mm
16:50 -13.7 °C -14 °C 34384.8 hPa SSW 7.6 km/h 20.8 km/h 96 % 7.62 mm
16:56 -13.7 °C -14 °C 34384.8 hPa SSW 15.6 km/h 23.3 km/h 96 % 12.7 mm
17:02 -13.7 °C -14 °C 34371.3 hPa SSW 10.3 km/h 20.8 km/h 96 % 12.7 mm
17:14 -13.7 °C -13.9 °C 34384.8 hPa SSW 10.3 km/h 23.3 km/h 97 % 12.7 mm
17:20 -13.7 °C -13.9 °C 34384.8 hPa SSW 15.6 km/h 20.8 km/h 97 % 12.7 mm
17:26 -13.6 °C -13.8 °C 34395 hPa SW 17.9 km/h 25.9 km/h 97 % 12.7 mm
17:32 -13.6 °C -13.8 °C 34395 hPa SSW 12.7 km/h 23.3 km/h 97 % 12.7 mm
17:38 -13.6 °C -13.8 °C 34395 hPa SSW 20.9 km/h 28.5 km/h 97 % 12.7 mm
17:44 -13.6 °C -13.8 °C 34395 hPa SW 15.6 km/h 25.9 km/h 97 % 12.7 mm
17:50 -13.6 °C -13.8 °C 34395 hPa SSW 12.7 km/h 23.3 km/h 97 % 12.7 mm
17:56 -13.6 °C -13.8 °C 34395 hPa SSW 12.7 km/h 20.8 km/h 97 % 12.7 mm
17:59 -13.6 °C -13.8 °C 34395 hPa South 10.3 km/h 18.2 km/h 97 % 12.7 mm
18:04 -13.5 °C -13.7 °C 34395 hPa SW 20.9 km/h 25.9 km/h 97 % 0 mm
18:10 -13.4 °C -13.7 °C 34395 hPa South 12.7 km/h 25.9 km/h 97 % 0 mm
18:16 -13.4 °C -13.7 °C 34384.8 hPa SW 12.7 km/h 18.2 km/h 97 % 0 mm
18:28 -13.4 °C -13.7 °C 34384.8 hPa SSW 10.3 km/h 15.6 km/h 97 % 7.62 mm
18:36 -13.4 °C -13.6 °C 34371.3 hPa SW 17.9 km/h 18.2 km/h 97 % 7.62 mm
18:44 -13.3 °C -13.6 °C 34371.3 hPa SW 12.7 km/h 18.2 km/h 97 % 7.62 mm
18:50 -13.3 °C -13.5 °C 34371.3 hPa South 5.1 km/h 18.2 km/h 97 % 7.62 mm
18:56 -13.3 °C -13.5 °C 34371.3 hPa SSW 12.7 km/h 18.2 km/h 97 % 7.62 mm
19:02 -13.2 °C -13.4 °C 34361.1 hPa SSW 7.6 km/h 15.6 km/h 97 % 7.62 mm
19:20 -13.2 °C -13.4 °C 34371.3 hPa SSW 15.6 km/h 20.8 km/h 97 % 7.62 mm
19:26 -13.2 °C -13.4 °C 34371.3 hPa SW 10.3 km/h 15.6 km/h 97 % 0 mm
19:32 -13.1 °C -13.3 °C 34371.3 hPa SSW 10.3 km/h 20.8 km/h 98 % 7.62 mm
19:38 -13.1 °C -13.2 °C 34361.1 hPa SW 10.3 km/h 18.2 km/h 98 % 7.62 mm
19:44 -13 °C -13.2 °C 34371.3 hPa SW 12.7 km/h 12.9 km/h 98 % 7.62 mm
19:50 -13 °C -13.2 °C 34371.3 hPa SW 7.6 km/h 12.9 km/h 98 % 7.62 mm
19:54 -13 °C -13.2 °C 34371.3 hPa SSW 7.6 km/h 12.9 km/h 98 % 7.62 mm
20:00 -12.9 °C -13.1 °C 34371.3 hPa SW 7.6 km/h 12.9 km/h 98 % 7.62 mm
20:06 -12.7 °C -12.9 °C 34361.1 hPa SW 10.3 km/h 18.2 km/h 98 % 7.62 mm
20:12 -12.5 °C -12.7 °C 34361.1 hPa SW 15.6 km/h 20.8 km/h 98 % 7.62 mm
20:24 -12.2 °C -12.3 °C 34361.1 hPa SW 23 km/h 31.1 km/h 98 % 7.62 mm
20:30 -12 °C -12.2 °C 34361.1 hPa SW 7.6 km/h 31.1 km/h 98 % 0 mm
20:36 -11.8 °C -12 °C 34361.1 hPa SSW 26.2 km/h 36.2 km/h 98 % 0 mm
20:42 -11.8 °C -11.9 °C 34361.1 hPa SW 12.7 km/h 31.1 km/h 98 % 7.62 mm
20:48 -11.7 °C -11.8 °C 34361.1 hPa SW 12.7 km/h 33.6 km/h 98 % 7.62 mm
20:54 -11.6 °C -11.7 °C 34347.6 hPa WSW 15.6 km/h 38.8 km/h 98 % 7.62 mm
21:03 -11.5 °C -11.7 °C 34361.1 hPa West 33.6 km/h 54.4 km/h 98 % 7.62 mm
21:09 -11.4 °C -11.6 °C 34361.1 hPa WSW 17.9 km/h 41.4 km/h 98 % 7.62 mm
21:15 -11.4 °C -11.6 °C 34361.1 hPa West 44.1 km/h 62.1 km/h 98 % 7.62 mm
21:21 -11.3 °C -11.6 °C 34361.1 hPa WSW 26.2 km/h 38.8 km/h 97 % 7.62 mm
21:27 -11.3 °C -11.6 °C 34361.1 hPa West 31.4 km/h 41.4 km/h 97 % 7.62 mm
21:39 -11.3 °C -11.7 °C 34347.6 hPa WSW 31.4 km/h 46.7 km/h 96 % 7.62 mm
21:43 -11.3 °C -11.7 °C 34347.6 hPa WSW 36.5 km/h 51.8 km/h 96 % 0 mm
21:49 -11.3 °C -11.6 °C 34337.4 hPa WSW 23 km/h 44.1 km/h 96 % 0 mm
21:53 -11.3 °C -11.6 °C 34347.6 hPa SW 23 km/h 28.5 km/h 96 % 0 mm
21:59 -11.3 °C -11.6 °C 34347.6 hPa SW 15.6 km/h 41.4 km/h 96 % 0 mm
22:05 -11.3 °C -11.6 °C 34347.6 hPa West 23 km/h 33.6 km/h 96 % 0 mm
22:11 -11.3 °C -11.6 °C 34347.6 hPa WSW 31.4 km/h 46.7 km/h 96 % 0 mm
22:19 -11.3 °C -11.7 °C 34347.6 hPa SW 12.7 km/h 38.8 km/h 96 % 0 mm
22:25 -11.3 °C -11.7 °C 34347.6 hPa WSW 46.3 km/h 54.4 km/h 96 % 7.62 mm
22:35 -11.3 °C -11.7 °C 34347.6 hPa West 23 km/h 57 km/h 96 % 7.62 mm
22:41 -11.3 °C -11.7 °C 34347.6 hPa West 20.9 km/h 59.5 km/h 96 % 12.7 mm
22:47 -11.3 °C -11.7 °C 34337.4 hPa WSW 26.2 km/h 46.7 km/h 95 % 12.7 mm
22:59 -11.3 °C -11.8 °C 34337.4 hPa West 28.5 km/h 38.8 km/h 94 % 12.7 mm
23:07 -11.3 °C -11.8 °C 34327.3 hPa SW 26.2 km/h 57 km/h 94 % 12.7 mm
23:13 -11.3 °C -11.8 °C 34337.4 hPa WSW 51.5 km/h 51.8 km/h 95 % 12.7 mm
23:21 -11.3 °C -11.8 °C 34327.3 hPa SW 33.6 km/h 49.2 km/h 95 % 12.7 mm
23:33 -11.3 °C -11.8 °C 34327.3 hPa SW 20.9 km/h 33.6 km/h 95 % 7.62 mm
23:45 -11.3 °C -11.8 °C 34313.7 hPa West 23 km/h 54.4 km/h 95 % 0 mm
23:51 -11.3 °C -11.8 °C 34313.7 hPa SW 36.5 km/h 41.4 km/h 95 % 0 mm
23:57 -11.3 °C -11.8 °C 34303.6 hPa WNW 28.5 km/h 36.2 km/h 95 % 0 mm
Meteo18
Compliments of Weather Underground - 4 mb

Script developed by  Jim McMurry - jmcmurry@mwt.net Adapted for the template by  Wim van der Kuil - Leuven-Template.eu

You find our weather info also at:

European Weather Network

Weather Underground

Equipment we use:

Weather-station
Davis Vue

Weather-program
Meteobridge

Weather-server
Raspberry PI 2 B+

Provider
1 and 1

Davis Vue

Meteobridge

Raspberry PI 2 B+

1 and 1